Voltar ao catálogo

SOAP

AtivoCiênciaSSO
NORAD 63263·PAYLOAD·🇫🇷 France

Lançado Mar 15, 2025 de Vandenberg Space Force Base

Loading…

Próximas Passagens (próximas 24 horas)

TLE

AtualizadoSource: Space-Track

Época: Sep 14, 2026, 15:51 UTC

1 63263U 25052BF  26257.66086608  .00002197  00000-0  19505-3 0  9998
2 63263  97.6725 148.3917 0003718  59.5508 300.6081 14.97172285 82073

Acompanhe SOAP em tempo real com AllMySat

Download on the App Store